Location: Schommer Observatory
(40.5200°N, 74.4500°W)
Time: 21:13:28
(UTC-04:00)

Vanguard 2 Rocket - Visible Passes

Search period start: 21 October 2017 00:00
Search period end: 31 October 2017 00:00
Orbit: 555 x 3327 km, 32.9° (Epoch: 21 October)

Date Brightness Start Highest point End Pass type
(mag) Time Alt. Az. Time Alt. Az. Time Alt. Az.
21 Oct 10.7 19:29:37 10° WSW 19:38:52 22° SSW 19:50:52 10° S visible
22 Oct 10.5 18:29:10 10° WSW 18:38:14 27° SSW 18:51:07 10° SSE visible
23 Oct 11.1 19:47:45 10° WSW 19:53:15 13° SW 19:59:35 10° SSW visible
24 Oct 10.9 18:45:38 10° WSW 18:52:43 17° SSW 19:01:49 10° S visible
